FW4770 Weather Reports


Display with metric or nautical units.
time (UTC)temp
F
wind
direction
speed
MPH
gust
MPH
rain 1hr
in
rain 24hr
in
rain mn
in
humidity
%
barometer
mb
20260506084819 27 344 1.0 4.0 0.00 0.00 0.00 87 1014.8
20260506084741 27 344 1.0 4.0 0.00 0.00 0.00 87 1014.8
20260506084622 27 344 1.0 4.0 0.00 0.00 0.00 87 1014.8
20260506084527 27 341 2.0 4.0 0.00 0.00 0.00 87 1014.8
20260506084430 27 299 1.0 3.0 0.00 0.00 0.00 87 1014.8
20260506084309 27 299 1.0 3.0 0.00 0.00 0.00 87 1014.8
20260506084211 27 299 1.0 3.0 0.00 0.00 0.00 87 1014.8
20260506084112 27 299 2.0 3.0 0.00 0.00 0.00 87 1014.7
20260506084013 27 299 2.0 3.0 0.00 0.00 0.00 87 1014.7
20260506083914 27 299 2.0 3.0 0.00 0.00 0.00 87 1014.8
20260506083819 27 299 2.0 3.0 0.00 0.00 0.00 87 1014.8
20260506083722 27 298 2.0 3.0 0.00 0.00 0.00 87 1014.8
20260506083624 27 298 2.0 3.0 0.00 0.00 0.00 87 1014.7
20260506083525 27 298 2.0 3.0 0.00 0.00 0.00 87 1014.8
20260506083408 27 298 2.0 3.0 0.00 0.00 0.00 87 1014.8
20260506083310 27 298 2.0 3.0 0.00 0.00 0.00 87 1014.8
20260506083215 27 297 2.0 3.0 0.00 0.00 0.00 87 1014.8
20260506083117 27 297 2.0 3.0 0.00 0.00 0.00 87 1014.8
20260506083020 27 297 2.0 3.0 0.00 0.00 0.00 87 1014.8
20260506082922 27 297 2.0 4.0 0.00 0.00 0.00 87 1014.8
20260506082824 27 297 2.0 4.0 0.00 0.00 0.00 87 1014.8
20260506082725 27 297 2.0 4.0 0.00 0.00 0.00 87 1014.8
20260506082610 27 297 2.0 4.0 0.00 0.00 0.00 86 1014.8
20260506082511 27 298 2.0 4.0 0.00 0.00 0.00 86 1014.9
20260506082432 27 298 2.0 4.0 0.00 0.00 0.00 86 1014.9
20260506082313 27 298 3.0 4.0 0.00 0.00 0.00 86 1014.9
20260506082233 27 298 2.0 4.0 0.00 0.00 0.00 86 1014.9
20260506082154 27 300 3.0 4.0 0.00 0.00 0.00 86 1014.9
20260506082009 27 300 2.0 4.0 0.00 0.00 0.00 86 1014.9
20260506081913 27 289 2.0 3.0 0.00 0.00 0.00 86 1014.9
20260506081813 27 289 2.0 3.0 0.00 0.00 0.00 86 1014.8
20260506081734 27 289 1.0 3.0 0.00 0.00 0.00 86 1014.9
20260506081634 27 289 1.0 3.0 0.00 0.00 0.00 86 1014.9
20260506081514 27 289 2.0 3.0 0.00 0.00 0.00 86 1014.9
20260506081415 27 289 2.0 3.0 0.00 0.00 0.00 86 1014.8
20260506081316 27 289 2.0 3.0 0.00 0.00 0.00 86 1014.8
20260506081216 27 26 2.0 2.0 0.00 0.00 0.00 86 1014.9
20260506081120 27 26 2.0 2.0 0.00 0.00 0.00 86 1014.8
20260506081042 27 26 2.0 2.0 0.00 0.00 0.00 85 1014.9
20260506080941 27 26 1.0 2.0 0.00 0.00 0.00 85 1014.9
20260506080821 27 26 1.0 1.0 0.00 0.00 0.00 85 1014.9
20260506080721 27 26 1.0 1.0 0.00 0.00 0.00 85 1014.9
20260506080621 27 26 0.0 1.0 0.00 0.00 0.00 85 1014.9
20260506080542 27 26 0.0 0.0 0.00 0.00 0.00 85 1014.8
20260506080420 27 26 0.0 0.0 0.00 0.00 0.00 85 1014.8
20260506080324 27 26 0.0 0.0 0.00 0.00 0.00 85 1014.8
20260506080244 27 26 0.0 0.0 0.00 0.00 0.00 85 1014.8
20260506080124 28 26 0.0 0.0 0.00 0.00 0.00 85 1014.8
20260506073515 28 26 0.0 1.0 0.00 0.00 0.00 84 1014.6
20260506073420 28 26 0.0 1.0 0.00 0.00 0.00 84 1014.7
20260506073321 28 26 0.0 1.0 0.00 0.00 0.00 84 1014.7
20260506073222 28 26 0.0 1.0 0.00 0.00 0.00 84 1014.7
20260506073122 28 26 0.0 1.0 0.00 0.00 0.00 84 1014.6
20260506073023 29 26 0.0 1.0 0.00 0.00 0.00 84 1014.7
20260506072924 29 26 0.0 1.0 0.00 0.00 0.00 84 1014.7
20260506072809 29 26 0.0 2.0 0.00 0.00 0.00 84 1014.7
20260506072729 29 26 0.0 2.0 0.00 0.00 0.00 84 1014.7
20260506072613 29 26 0.0 2.0 0.00 0.00 0.00 84 1014.7
20260506072517 29 26 1.0 2.0 0.00 0.00 0.00 84 1014.7
20260506072422 29 26 1.0 2.0 0.00 0.00 0.00 84 1014.7
20260506072326 29 26 1.0 2.0 0.00 0.00 0.00 84 1014.7
20260506072208 29 26 1.0 2.0 0.00 0.00 0.00 84 1014.7
20260506072116 29 26 1.0 2.0 0.00 0.00 0.00 84 1014.8
20260506072020 29 26 1.0 2.0 0.00 0.00 0.00 84 1014.8
20260506071924 29 26 1.0 2.0 0.00 0.00 0.00 84 1014.7
20260506071828 29 26 1.0 2.0 0.00 0.00 0.00 84 1014.7
20260506071705 29 26 1.0 2.0 0.00 0.00 0.00 84 1014.7
20260506071609 29 26 1.0 2.0 0.00 0.00 0.00 84 1014.7
20260506071532 29 26 1.0 2.0 0.00 0.00 0.00 84 1014.7
20260506071419 29 26 1.0 2.0 0.00 0.00 0.00 84 1014.7
20260506071322 29 26 1.0 2.0 0.00 0.00 0.00 84 1014.7
20260506071207 29 26 2.0 3.0 0.00 0.00 0.00 84 1014.7
20260506071131 29 26 2.0 3.0 0.00 0.00 0.00 84 1014.7
20260506071007 30 26 1.0 3.0 0.00 0.00 0.00 84 1014.7
20260506070911 30 26 1.0 3.0 0.00 0.00 0.00 84 1014.7
20260506070839 30 26 2.0 3.0 0.00 0.00 0.00 84 1014.7
20260506070742 30 26 2.0 3.0 0.00 0.00 0.00 84 1014.7
20260506070624 30 26 2.0 3.0 0.00 0.00 0.00 84 1014.7
20260506070508 30 26 2.0 3.0 0.00 0.00 0.00 83 1014.7
20260506070412 30 26 2.0 3.0 0.00 0.00 0.00 83 1014.7
20260506070315 30 27 2.0 2.0 0.00 0.00 0.00 83 1014.8
20260506070218 30 27 2.0 2.0 0.00 0.00 0.00 83 1014.7
20260506070106 30 27 1.0 2.0 0.00 0.00 0.00 83 1014.7
20260506062510 31 27 0.0 1.0 0.00 0.00 0.00 77 1014.8
20260506062415 31 27 0.0 1.0 0.00 0.00 0.00 77 1014.8
20260506062320 31 27 0.0 1.0 0.00 0.00 0.00 76 1014.8
20260506062221 31 27 0.0 1.0 0.00 0.00 0.00 76 1014.8
20260506062126 31 27 1.0 1.0 0.00 0.00 0.00 76 1014.9
20260506062027 31 27 1.0 1.0 0.00 0.00 0.00 76 1014.8
20260506061909 31 27 0.0 1.0 0.00 0.00 0.00 76 1014.8
20260506061812 31 27 0.0 1.0 0.00 0.00 0.00 75 1014.7
20260506061713 31 27 0.0 1.0 0.00 0.00 0.00 75 1014.9
20260506061615 32 27 0.0 1.0 0.00 0.00 0.00 75 1014.8
20260506061520 32 27 0.0 1.0 0.00 0.00 0.00 75 1014.8
20260506061424 32 27 0.0 1.0 0.00 0.00 0.00 75 1014.9
20260506061328 32 27 1.0 1.0 0.00 0.00 0.00 75 1014.8
20260506061211 32 27 1.0 2.0 0.00 0.00 0.00 75 1014.8
20260506061135 32 27 1.0 2.0 0.00 0.00 0.00 75 1014.8
20260506061037 32 27 1.0 2.0 0.00 0.00 0.00 75 1014.9
20260506060920 32 27 1.0 2.0 0.00 0.00 0.00 75 1014.8
20260506060810 32 27 1.0 2.0 0.00 0.00 0.00 75 1014.8
20260506060734 32 27 1.0 2.0 0.00 0.00 0.00 75 1014.8
20260506060619 32 27 1.0 2.0 0.00 0.00 0.00 74 1014.8
20260506060544 33 27 1.0 2.0 0.00 0.00 0.00 75 1014.8
20260506060408 33 27 1.0 2.0 0.00 0.00 0.00 74 1014.8
20260506060311 33 27 1.0 1.0 0.00 0.00 0.00 74 1014.8
20260506060215 33 27 1.0 1.0 0.00 0.00 0.00 74 1014.8
20260506060105 33 27 1.0 1.0 0.00 0.00 0.00 73 1014.7
20260506051408 36 20 2.0 4.0 0.00 0.00 0.00 67 1014.3
20260506051311 36 17 2.0 4.0 0.00 0.00 0.00 67 1014.3
20260506051233 36 17 2.0 4.0 0.00 0.00 0.00 67 1014.3
20260506051115 36 19 2.0 4.0 0.00 0.00 0.00 67 1014.2
20260506051022 36 28 2.0 5.0 0.00 0.00 0.00 67 1014.3
20260506050926 36 29 2.0 5.0 0.00 0.00 0.00 67 1014.3
20260506050829 36 23 3.0 5.0 0.00 0.00 0.00 67 1014.3
20260506050711 36 22 3.0 5.0 0.00 0.00 0.00 66 1014.2
20260506050617 36 17 2.0 5.0 0.00 0.00 0.00 67 1014.2
20260506050519 36 13 2.0 5.0 0.00 0.00 0.00 67 1014.1
20260506050407 36 16 2.0 5.0 0.00 0.00 0.00 67 1014.1
20260506050332 36 13 3.0 5.0 0.00 0.00 0.00 66 1014.1
20260506050214 36 17 3.0 5.0 0.00 0.00 0.00 66 1014.0
20260506050118 36 18 2.0 4.0 0.00 0.00 0.00 66 1014.1
20260506045114 37 24 2.0 4.0 0.00 0.00 0.00 66 1014.1
20260506045017 37 22 2.0 4.0 0.00 0.00 0.00 66 1014.0
20260506044905 37 22 2.0 4.0 0.00 0.00 0.00 66 1014.1
20260506044808 37 26 2.0 4.0 0.00 0.00 0.00 66 1014.0
20260506044711 37 27 2.0 4.0 0.00 0.00 0.00 66 1014.1
20260506044615 37 27 2.0 4.0 0.00 0.00 0.00 66 1014.0
20260506044518 37 27 2.0 4.0 0.00 0.00 0.00 65 1014.0
20260506044420 37 27 2.0 4.0 0.00 0.00 0.00 65 1014.0
20260506044307 37 28 2.0 4.0 0.00 0.00 0.00 65 1014.0
20260506044231 37 28 2.0 4.0 0.00 0.00 0.00 65 1014.0
20260506044106 37 28 2.0 4.0 0.00 0.00 0.00 65 1014.0
20260506044029 37 30 2.0 4.0 0.00 0.00 0.00 64 1014.0
20260506043931 37 28 2.0 4.0 0.00 0.00 0.00 64 1014.0
20260506043813 37 22 1.0 5.0 0.00 0.00 0.00 64 1014.0
20260506043716 37 22 2.0 5.0 0.00 0.00 0.00 64 1014.0
20260506043623 37 22 2.0 5.0 0.00 0.00 0.00 64 1014.0
20260506043527 37 22 2.0 5.0 0.00 0.00 0.00 64 1014.0
20260506043429 37 30 2.0 5.0 0.00 0.00 0.00 64 1014.1
20260506043312 37 30 2.0 5.0 0.00 0.00 0.00 64 1014.0
20260506043235 37 32 3.0 5.0 0.00 0.00 0.00 64 1014.0
20260506043117 38 34 3.0 5.0 0.00 0.00 0.00 64 1014.0
20260506043041 38 14 3.0 5.0 0.00 0.00 0.00 64 1014.0
20260506042907 38 19 3.0 5.0 0.00 0.00 0.00 64 1014.1
20260506042830 38 5 3.0 5.0 0.00 0.00 0.00 64 1014.0
20260506042706 38 30 2.0 6.0 0.00 0.00 0.00 64 1014.0
20260506042610 38 32 2.0 6.0 0.00 0.00 0.00 64 1014.0
20260506042511 38 38 2.0 6.0 0.00 0.00 0.00 64 1014.1
20260506042414 38 19 2.0 6.0 0.00 0.00 0.00 64 1014.1
20260506042338 38 35 2.0 6.0 0.00 0.00 0.00 64 1014.0
20260506042240 38 36 3.0 6.0 0.00 0.00 0.00 64 1013.9
20260506042126 38 13 3.0 6.0 0.00 0.00 0.00 63 1014.0
20260506042027 38 19 3.0 6.0 0.00 0.00 0.00 63 1014.1
20260506041908 38 317 4.0 6.0 0.00 0.00 0.00 63 1014.0
20260506041811 38 12 3.0 7.0 0.00 0.00 0.00 63 1014.1
20260506041715 38 15 3.0 7.0 0.00 0.00 0.00 62 1014.0
20260506041618 38 10 3.0 6.0 0.00 0.00 0.00 62 1014.0
20260506041505 38 9 3.0 7.0 0.00 0.00 0.00 62 1014.0
20260506041407 38 36 3.0 5.0 0.00 0.00 0.00 62 1014.0
20260506041331 38 23 3.0 5.0 0.00 0.00 0.00 62 1014.0
20260506041212 38 31 3.0 5.0 0.00 0.00 0.00 62 1014.0
20260506041115 38 46 3.0 5.0 0.00 0.00 0.00 61 1014.0
20260506041020 38 47 3.0 5.0 0.00 0.00 0.00 62 1013.9
20260506040905 38 49 4.0 5.0 0.00 0.00 0.00 62 1014.0
20260506040809 39 30 3.0 5.0 0.00 0.00 0.00 61 1014.0
20260506040710 39 40 3.0 5.0 0.00 0.00 0.00 61 1013.9
20260506040613 39 38 3.0 5.0 0.00 0.00 0.00 61 1013.9
20260506040517 39 40 3.0 5.0 0.00 0.00 0.00 61 1013.9
20260506040419 39 56 3.0 5.0 0.00 0.00 0.00 61 1013.9
20260506040322 39 40 3.0 5.0 0.00 0.00 0.00 60 1013.9
20260506040251 39 42 3.0 5.0 0.00 0.00 0.00 60 1013.9
20260506040106 39 22 3.0 6.0 0.00 0.00 0.00 60 1013.9
20260506040009 39 17 3.0 6.0 0.00 0.00 0.00 60 1013.8
20260506035913 39 39 2.0 6.0 0.00 0.00 0.00 61 1013.9
20260506035816 39 5 2.0 6.0 0.00 0.00 0.00 60 1013.9
20260506035718 39 36 2.0 6.0 0.00 0.00 0.00 60 1014.0
20260506035626 39 14 3.0 6.0 0.00 0.00 0.00 60 1013.9
20260506035508 39 5 4.0 6.0 0.00 0.00 0.00 60 1013.9
20260506035413 39 24 4.0 6.0 0.00 0.00 0.00 60 1013.9
20260506035315 39 348 3.0 6.0 0.00 0.00 0.00 60 1013.8
20260506035216 39 15 2.0 5.0 0.00 0.00 0.00 60 1013.8
20260506035119 39 18 2.0 8.0 0.00 0.00 0.00 60 1013.8
20260506035005 39 13 3.0 8.0 0.00 0.00 0.00 60 1013.8
20260506034930 39 13 3.0 8.0 0.00 0.00 0.00 60 1013.8
20260506034805 40 28 3.0 8.0 0.00 0.00 0.00 60 1013.8
20260506034731 40 355 3.0 8.0 0.00 0.00 0.00 60 1013.7
20260506034607 40 333 3.0 8.0 0.00 0.00 0.00 60 1013.8
20260506034511 40 342 3.0 8.0 0.00 0.00 0.00 60 1013.8
20260506034435 40 5 4.0 8.0 0.00 0.00 0.00 60 1013.7
20260506034321 40 14 5.0 8.0 0.00 0.00 0.00 60 1013.7
20260506034222 40 10 4.0 8.0 0.00 0.00 0.00 60 1013.7
20260506034142 40 355 3.0 8.0 0.00 0.00 0.00 60 1013.7
20260506034041 40 5 4.0 8.0 0.00 0.00 0.00 59 1013.6
20260506033923 40 9 4.0 8.0 0.00 0.00 0.00 60 1013.7
20260506033845 40 355 3.0 8.0 0.00 0.00 0.00 60 1013.7
20260506033744 40 17 3.0 8.0 0.00 0.00 0.00 59 1013.6
20260506033607 40 5 4.0 9.0 0.00 0.00 0.00 59 1013.6
20260506033513 40 360 5.0 9.0 0.00 0.00 0.00 59 1013.6
20260506033433 40 5 4.0 10.0 0.00 0.00 0.00 59 1013.5
20260506033312 40 5 3.0 10.0 0.00 0.00 0.00 59 1013.6
20260506033213 40 5 3.0 10.0 0.00 0.00 0.00 59 1013.5
20260506033113 40 19 3.0 10.0 0.00 0.00 0.00 59 1013.6
20260506033012 40 12 4.0 10.0 0.00 0.00 0.00 58 1013.6
20260506032933 40 5 4.0 10.0 0.00 0.00 0.00 59 1013.5
20260506032812 40 15 4.0 10.0 0.00 0.00 0.00 58 1013.5
20260506032718 40 22 5.0 10.0 0.00 0.00 0.00 58 1013.5
20260506032642 40 13 5.0 10.0 0.00 0.00 0.00 58 1013.5
20260506032505 40 9 4.0 9.0 0.00 0.00 0.00 58 1013.5
20260506032408 40 30 4.0 9.0 0.00 0.00 0.00 58 1013.5
20260506032311 40 344 5.0 10.0 0.00 0.00 0.00 58 1013.7
20260506032212 41 14 5.0 10.0 0.00 0.00 0.00 58 1013.6
20260506032115 41 11 5.0 10.0 0.00 0.00 0.00 58 1013.6
20260506032033 41 355 4.0 10.0 0.00 0.00 0.00 58 1013.5
20260506031935 41 351 4.0 10.0 0.00 0.00 0.00 58 1013.5
20260506031807 41 5 4.0 10.0 0.00 0.00 0.00 58 1013.6
20260506031728 41 5 4.0 10.0 0.00 0.00 0.00 58 1013.5
20260506031649 41 355 5.0 10.0 0.00 0.00 0.00 57 1013.5
20260506031550 41 18 6.0 10.0 0.00 0.00 0.00 57 1013.4
20260506031404 41 346 5.0 10.0 0.00 0.00 0.00 57 1013.5
20260506031312 41 20 5.0 10.0 0.00 0.00 0.00 57 1013.4
20260506031214 41 339 6.0 11.0 0.00 0.00 0.00 57 1013.4
20260506031114 41 5 6.0 11.0 0.00 0.00 0.00 57 1013.4
20260506031035 41 11 5.0 13.0 0.00 0.00 0.00 57 1013.4
20260506030914 41 9 5.0 13.0 0.00 0.00 0.00 57 1013.4
20260506030834 41 332 5.0 13.0 0.00 0.00 0.00 57 1013.5
20260506030754 41 5 5.0 13.0 0.00 0.00 0.00 57 1013.4
20260506030605 41 360 6.0 13.0 0.00 0.00 0.00 56 1013.5
20260506030513 41 331 6.0 13.0 0.00 0.00 0.00 56 1013.5
20260506030415 41 343 5.0 13.0 0.00 0.00 0.00 57 1013.4
20260506030316 41 12 6.0 13.0 0.00 0.00 0.00 57 1013.5
20260506030216 41 16 7.0 13.0 0.00 0.00 0.00 56 1013.5
20260506030119 41 355 6.0 12.0 0.00 0.00 0.00 56 1013.4
20260506030045 41 308 6.0 12.0 0.00 0.00 0.00 56 1013.5
20260506025910 41 355 6.0 12.0 0.00 0.00 0.00 57 1013.5
20260506025811 41 340 5.0 12.0 0.00 0.00 0.00 56 1013.4
20260506025715 41 19 6.0 12.0 0.00 0.00 0.00 56 1013.4
20260506025616 41 5 7.0 12.0 0.00 0.00 0.00 56 1013.6
20260506025515 41 5 7.0 12.0 0.00 0.00 0.00 57 1013.5
20260506025416 41 5 6.0 12.0 0.00 0.00 0.00 56 1013.5
20260506025337 42 345 8.0 12.0 0.00 0.00 0.00 56 1013.4
20260506025234 42 9 9.0 12.0 0.00 0.00 0.00 56 1013.4
20260506025117 42 5 7.0 12.0 0.00 0.00 0.00 56 1013.4
20260506025018 42 360 6.0 12.0 0.00 0.00 0.00 57 1013.4
20260506024919 42 16 7.0 13.0 0.00 0.00 0.00 57 1013.4
20260506024818 42 11 6.0 13.0 0.00 0.00 0.00 57 1013.4
20260506024719 42 355 5.0 15.0 0.00 0.00 0.00 56 1013.4
20260506024617 42 24 6.0 15.0 0.00 0.00 0.00 57 1013.4
20260506024537 42 11 7.0 15.0 0.00 0.00 0.00 57 1013.4
20260506024421 42 355 7.0 15.0 0.00 0.00 0.00 57 1013.3
20260506024322 42 22 7.0 15.0 0.00 0.00 0.00 56 1013.3
20260506024221 42 5 8.0 15.0 0.00 0.00 0.00 56 1013.4
20260506024123 42 355 10.0 15.0 0.00 0.00 0.00 57 1013.4
20260506024021 42 344 9.0 15.0 0.00 0.00 0.00 57 1013.3
20260506023922 42 343 6.0 13.0 0.00 0.00 0.00 56 1013.3
20260506023823 42 17 7.0 11.0 0.00 0.00 0.00 56 1013.2
20260506023707 42 9 8.0 11.0 0.00 0.00 0.00 56 1013.3
20260506023608 42 350 7.0 11.0 0.00 0.00 0.00 57 1013.2
20260506023510 42 5 6.0 11.0 0.00 0.00 0.00 56 1013.2
20260506023411 42 338 4.0 11.0 0.00 0.00 0.00 56 1013.2
20260506023313 42 344 4.0 11.0 0.00 0.00 0.00 57 1013.2
20260506023215 42 9 4.0 11.0 0.00 0.00 0.00 57 1013.1
20260506023122 42 13 5.0 11.0 0.00 0.00 0.00 56 1013.2
20260506023023 42 11 5.0 11.0 0.00 0.00 0.00 56 1013.1
20260506022925 42 336 6.0 11.0 0.00 0.00 0.00 56 1013.1
20260506022824 42 360 7.0 11.0 0.00 0.00 0.00 56 1013.1
20260506022725 42 15 6.0 11.0 0.00 0.00 0.00 56 1013.1
20260506022626 42 360 6.0 11.0 0.00 0.00 0.00 56 1013.1
20260506022512 42 344 6.0 11.0 0.00 0.00 0.00 57 1013.1
20260506022412 42 350 6.0 13.0 0.00 0.00 0.00 56 1013.1
20260506022312 42 330 7.0 13.0 0.00 0.00 0.00 56 1013.1
20260506022213 42 355 7.0 13.0 0.00 0.00 0.00 56 1013.1
20260506022134 42 12 7.0 13.0 0.00 0.00 0.00 56 1013.0
20260506022015 42 5 6.0 13.0 0.00 0.00 0.00 56 1013.0
20260506021918 43 26 4.0 13.0 0.00 0.00 0.00 56 1013.0
20260506021806 43 44 4.0 13.0 0.00 0.00 0.00 56 1013.0
20260506021710 43 355 6.0 13.0 0.00 0.00 0.00 56 1012.9
20260506021633 43 16 7.0 13.0 0.00 0.00 0.00 56 1012.9
20260506021515 43 351 7.0 13.0 0.00 0.00 0.00 55 1013.0
20260506021417 43 15 7.0 13.0 0.00 0.00 0.00 55 1012.8
20260506021316 43 19 7.0 13.0 0.00 0.00 0.00 55 1012.8
20260506021221 43 27 7.0 16.0 0.00 0.00 0.00 55 1012.8
20260506021119 43 14 6.0 16.0 0.00 0.00 0.00 55 1012.8
20260506021024 43 9 6.0 16.0 0.00 0.00 0.00 55 1012.7
20260506020928 43 360 8.0 16.0 0.00 0.00 0.00 55 1012.8
20260506020810 43 329 9.0 16.0 0.00 0.00 0.00 55 1012.7
20260506020714 43 360 8.0 18.0 0.00 0.00 0.00 55 1012.8
20260506020619 43 360 8.0 18.0 0.00 0.00 0.00 55 1012.7
20260506020506 43 17 9.0 19.0 0.00 0.00 0.00 55 1012.8
20260506020431 43 5 8.0 19.0 0.00 0.00 0.00 55 1012.7
20260506020306 43 33 8.0 19.0 0.00 0.00 0.00 55 1012.7
20260506020211 43 40 9.0 19.0 0.00 0.00 0.00 55 1012.6
20260506020116 43 15 11.0 19.0 0.00 0.00 0.00 55 1012.6
20260506020018 43 47 10.0 19.0 0.00 0.00 0.00 55 1012.6
20260506015906 43 346 8.0 19.0 0.00 0.00 0.00 55 1012.6
20260506015831 43 360 10.0 19.0 0.00 0.00 0.00 55 1012.7
20260506015707 43 351 11.0 19.0 0.00 0.00 0.00 55 1012.6
20260506015612 43 347 7.0 18.0 0.00 0.00 0.00 56 1012.5
20260506015536 43 14 6.0 12.0 0.00 0.00 0.00 56 1012.6
20260506015419 43 355 5.0 12.0 0.00 0.00 0.00 56 1012.5
20260506015328 43 17 5.0 9.0 0.00 0.00 0.00 57 1012.6
20260506015252 43 323 5.0 9.0 0.00 0.00 0.00 56 1012.5
20260506015108 43 16 3.0 6.0 0.00 0.00 0.00 56 1012.5
20260506015012 43 14 3.0 6.0 0.00 0.00 0.00 56 1012.4
20260506014917 43 13 3.0 6.0 0.00 0.00 0.00 55 1012.4
20260506014821 43 12 3.0 6.0 0.00 0.00 0.00 55 1012.3
20260506014710 44 10 3.0 8.0 0.00 0.00 0.00 55 1012.3
20260506014614 44 18 3.0 8.0 0.00 0.00 0.00 55 1012.3
20260506014519 44 5 4.0 8.0 0.00 0.00 0.00 55 1012.4
20260506014423 44 355 5.0 9.0 0.00 0.00 0.00 55 1012.4
20260506014327 44 11 4.0 9.0 0.00 0.00 0.00 54 1012.3
20260506014231 44 350 4.0 9.0 0.00 0.00 0.00 55 1012.4
20260506014107 44 15 3.0 9.0 0.00 0.00 0.00 54 1012.4
20260506014016 44 15 4.0 9.0 0.00 0.00 0.00 54 1012.3
20260506013939 44 12 5.0 9.0 0.00 0.00 0.00 54 1012.4
20260506013824 44 15 5.0 12.0 0.00 0.00 0.00 54 1012.3
20260506013728 44 5 5.0 12.0 0.00 0.00 0.00 54 1012.3
20260506013610 44 360 5.0 12.0 0.00 0.00 0.00 54 1012.3
20260506013535 44 20 4.0 12.0 0.00 0.00 0.00 54 1012.3
20260506013417 44 355 4.0 12.0 0.00 0.00 0.00 53 1012.2
20260506013320 44 39 4.0 12.0 0.00 0.00 0.00 53 1012.3
20260506013229 44 18 4.0 12.0 0.00 0.00 0.00 53 1012.2
20260506013105 44 47 6.0 12.0 0.00 0.00 0.00 53 1012.2
20260506013008 44 355 6.0 13.0 0.00 0.00 0.00 53 1012.2
20260506012911 45 16 4.0 13.0 0.00 0.00 0.00 53 1012.2
20260506012815 45 344 5.0 13.0 0.00 0.00 0.00 53 1012.2
20260506012738 45 52 5.0 13.0 0.00 0.00 0.00 53 1012.1
20260506012619 45 19 5.0 13.0 0.00 0.00 0.00 53 1012.2
20260506012507 45 15 5.0 13.0 0.00 0.00 0.00 52 1012.2
20260506012430 45 21 5.0 13.0 0.00 0.00 0.00 52 1012.2
20260506012308 45 40 8.0 13.0 0.00 0.00 0.00 52 1012.2
20260506012229 45 20 8.0 13.0 0.00 0.00 0.00 52 1012.1
20260506012111 45 355 6.0 13.0 0.00 0.00 0.00 52 1012.2
20260506012034 45 14 6.0 13.0 0.00 0.00 0.00 51 1012.2
20260506011936 45 33 7.0 14.0 0.00 0.00 0.00 51 1012.2
20260506011839 45 23 7.0 17.0 0.00 0.00 0.00 51 1012.1
20260506011724 45 5 6.0 18.0 0.00 0.00 0.00 51 1012.2
20260506011629 45 9 7.0 18.0 0.00 0.00 0.00 51 1012.1
20260506011510 45 17 7.0 18.0 0.00 0.00 0.00 51 1012.1
20260506011433 45 12 9.0 18.0 0.00 0.00 0.00 51 1012.1
20260506011315 46 9 9.0 18.0 0.00 0.00 0.00 51 1012.1
20260506011218 46 13 10.0 18.0 0.00 0.00 0.00 51 1012.2
20260506011105 46 23 12.0 18.0 0.00 0.00 0.00 51 1012.1
20260506011008 46 349 12.0 18.0 0.00 0.00 0.00 50 1012.0
20260506010932 46 360 12.0 18.0 0.00 0.00 0.00 50 1012.0
20260506010814 46 360 11.0 17.0 0.00 0.00 0.00 51 1012.1
20260506010717 46 355 9.0 17.0 0.00 0.00 0.00 50 1012.1
20260506010619 46 34 8.0 17.0 0.00 0.00 0.00 50 1012.0
20260506010522 46 5 8.0 17.0 0.00 0.00 0.00 50 1012.1
20260506010410 46 355 9.0 17.0 0.00 0.00 0.00 50 1012.0
20260506010313 46 5 10.0 17.0 0.00 0.00 0.00 50 1012.1
20260506010216 46 346 11.0 17.0 0.00 0.00 0.00 50 1012.0
20260506010122 46 360 11.0 17.0 0.00 0.00 0.00 50 1011.9
20260506010045 46 355 10.0 15.0 0.00 0.00 0.00 50 1012.0
20260506005927 46 331 9.0 15.0 0.00 0.00 0.00 50 1012.0
20260506005810 46 344 7.0 15.0 0.00 0.00 0.00 50 1012.0
20260506005718 46 5 8.0 15.0 0.00 0.00 0.00 50 1011.9
20260506005622 46 21 8.0 15.0 0.00 0.00 0.00 51 1011.8
20260506005507 46 348 7.0 15.0 0.00 0.00 0.00 51 1011.9
20260506005430 46 346 7.0 15.0 0.00 0.00 0.00 50 1011.9
20260506005308 46 319 9.0 15.0 0.00 0.00 0.00 50 1011.8
20260506005212 46 355 10.0 16.0 0.00 0.00 0.00 50 1011.8
20260506005119 46 355 8.0 16.0 0.00 0.00 0.00 50 1011.8
20260506005023 46 5 8.0 16.0 0.00 0.00 0.00 50 1011.8
20260506004928 46 5 7.0 16.0 0.00 0.00 0.00 50 1011.7
20260506004831 46 355 7.0 16.0 0.00 0.00 0.00 50 1011.8
20260506004708 47 37 7.0 16.0 0.00 0.00 0.00 50 1011.7
20260506004612 47 355 9.0 16.0 0.00 0.00 0.00 51 1011.8
20260506004520 47 344 9.0 16.0 0.00 0.00 0.00 50 1011.7
20260506004445 47 360 8.0 16.0 0.00 0.00 0.00 50 1011.7
20260506004328 47 44 8.0 16.0 0.00 0.00 0.00 50 1011.7
20260506004205 47 360 7.0 16.0 0.00 0.00 0.00 50 1011.7
20260506004129 47 28 7.0 16.0 0.00 0.00 0.00 50 1011.7
20260506004013 47 13 9.0 16.0 0.00 0.00 0.00 49 1011.7
20260506003917 47 355 8.0 16.0 0.00 0.00 0.00 50 1011.6
20260506003825 47 36 8.0 16.0 0.00 0.00 0.00 50 1011.6
20260506003728 47 9 7.0 12.0 0.00 0.00 0.00 49 1011.6
20260506003651 47 30 7.0 16.0 0.00 0.00 0.00 49 1011.6
20260506003505 47 360 6.0 16.0 0.00 0.00 0.00 49 1011.6
20260506003410 47 19 6.0 18.0 0.00 0.00 0.00 49 1011.6
20260506003315 47 28 6.0 18.0 0.00 0.00 0.00 50 1011.6
20260506003220 47 355 7.0 18.0 0.00 0.00 0.00 49 1011.6
20260506003128 47 360 8.0 18.0 0.00 0.00 0.00 49 1011.6
20260506003005 48 24 7.0 18.0 0.00 0.00 0.00 49 1011.6
20260506002929 48 355 8.0 18.0 0.00 0.00 0.00 48 1011.6
20260506002813 48 355 8.0 18.0 0.00 0.00 0.00 49 1011.6
20260506002716 48 355 10.0 18.0 0.00 0.00 0.00 48 1011.7
20260506002621 48 349 12.0 18.0 0.00 0.00 0.00 48 1011.6
20260506002529 48 61 11.0 15.0 0.00 0.00 0.00 48 1011.6
20260506002406 48 20 9.0 15.0 0.00 0.00 0.00 48 1011.6
20260506002330 48 346 8.0 14.0 0.00 0.00 0.00 49 1011.5
20260506002208 48 13 8.0 14.0 0.00 0.00 0.00 49 1011.5
20260506002112 48 334 9.0 14.0 0.00 0.00 0.00 49 1011.4
20260506002016 48 348 8.0 14.0 0.00 0.00 0.00 49 1011.4
20260506001925 48 34 7.0 14.0 0.00 0.00 0.00 49 1011.4
20260506001809 48 49 7.0 13.0 0.00 0.00 0.00 49 1011.4
20260506001712 48 44 7.0 13.0 0.00 0.00 0.00 48 1011.4
20260506001637 48 328 8.0 13.0 0.00 0.00 0.00 49 1011.4
20260506001519 48 15 8.0 13.0 0.00 0.00 0.00 49 1011.4
20260506001423 48 355 8.0 13.0 0.00 0.00 0.00 48 1011.4
20260506001311 48 360 7.0 13.0 0.00 0.00 0.00 48 1011.4
20260506001215 48 5 8.0 13.0 0.00 0.00 0.00 48 1011.5
20260506001120 48 10 9.0 13.0 0.00 0.00 0.00 48 1011.4
20260506001005 48 323 6.0 13.0 0.00 0.00 0.00 48 1011.4
20260506000910 48 347 5.0 13.0 0.00 0.00 0.00 49 1011.3
20260506000815 48 27 5.0 13.0 0.00 0.00 0.00 48 1011.4
20260506000722 48 355 5.0 13.0 0.00 0.00 0.00 48 1011.4
20260506000607 48 350 7.0 14.0 0.00 0.00 0.00 48 1011.3
20260506000511 48 355 8.0 14.0 0.00 0.00 0.00 47 1011.4
20260506000416 48 294 8.0 15.0 0.00 0.00 0.00 48 1011.4
20260506000320 48 5 7.0 15.0 0.00 0.00 0.00 48 1011.4
20260506000223 48 355 7.0 15.0 0.00 0.00 0.00 46 1011.3
20260506000110 49 338 9.0 15.0 0.00 0.00 0.00 47 1011.4
20260506000015 49 333 9.0 16.0 0.00 0.00 0.00 47 1011.3
20260505235939 49 9 10.0 16.0 0.00 0.00 0.00 47 1011.3
20260505235824 49 355 10.0 16.0 0.00 0.00 0.00 47 1011.3
20260505235709 49 349 10.0 16.0 0.00 0.00 0.00 46 1011.3
20260505235614 49 5 10.0 16.0 0.00 0.00 0.00 46 1011.3
20260505235520 49 329 8.0 16.0 0.00 0.00 0.00 47 1011.3
20260505235409 49 355 8.0 16.0 0.00 0.00 0.00 47 1011.3
20260505235313 49 321 11.0 16.0 0.00 0.00 0.00 47 1011.3
20260505235218 49 350 13.0 17.0 0.00 0.00 0.00 46 1011.3
20260505235122 49 355 11.0 17.0 0.00 0.00 0.00 47 1011.3
20260505235026 49 338 9.0 17.0 0.00 0.00 0.00 47 1011.3
20260505234928 49 332 10.0 17.0 0.00 0.00 0.00 46 1011.2
20260505234815 49 344 10.0 17.0 0.00 0.00 0.00 47 1011.2
20260505234717 49 9 9.0 17.0 0.00 0.00 0.00 47 1011.2
20260505234622 49 347 8.0 17.0 0.00 0.00 0.00 47 1011.2
20260505234507 49 360 10.0 17.0 0.00 0.00 0.00 45 1011.2
20260505234431 49 350 11.0 17.0 0.00 0.00 0.00 45 1011.2
20260505234307 49 349 10.0 14.0 0.00 0.00 0.00 45 1011.2
20260505234216 49 19 8.0 14.0 0.00 0.00 0.00 45 1011.2
20260505234120 49 5 7.0 13.0 0.00 0.00 0.00 45 1011.2
20260505234024 49 348 6.0 13.0 0.00 0.00 0.00 46 1011.2
20260505233908 50 360 7.0 17.0 0.00 0.00 0.00 46 1011.2
20260505233813 50 344 8.0 17.0 0.00 0.00 0.00 45 1011.1
20260505233716 50 309 8.0 17.0 0.00 0.00 0.00 45 1011.1
20260505233624 50 336 8.0 17.0 0.00 0.00 0.00 45 1011.2
20260505233526 50 317 8.0 17.0 0.00 0.00 0.00 44 1011.1
20260505233409 50 329 7.0 17.0 0.00 0.00 0.00 45 1011.1
20260505233312 50 304 9.0 17.0 0.00 0.00 0.00 44 1011.2
20260505233216 50 338 10.0 17.0 0.00 0.00 0.00 43 1011.1
20260505233118 50 333 10.0 15.0 0.00 0.00 0.00 44 1011.1
20260505233007 51 355 9.0 15.0 0.00 0.00 0.00 45 1011.1
20260505232929 51 302 9.0 20.0 0.00 0.00 0.00 45 1011.1
20260505232805 51 338 8.0 20.0 0.00 0.00 0.00 45 1011.1
20260505232709 51 306 7.0 20.0 0.00 0.00 0.00 45 1011.1
20260505232613 51 315 7.0 20.0 0.00 0.00 0.00 44 1011.1
20260505232515 51 331 8.0 20.0 0.00 0.00 0.00 43 1011.1
20260505232418 50 348 8.0 20.0 0.00 0.00 0.00 43 1011.0
20260505232326 51 349 9.0 20.0 0.00 0.00 0.00 43 1011.1
20260505232228 51 19 12.0 20.0 0.00 0.00 0.00 43 1011.1
20260505232109 51 351 12.0 20.0 0.00 0.00 0.00 43 1011.1
20260505232012 51 355 11.0 17.0 0.00 0.00 0.00 43 1011.0
20260505231916 51 343 11.0 17.0 0.00 0.00 0.00 44 1011.0
20260505231818 51 337 11.0 17.0 0.00 0.00 0.00 43 1011.0
20260505231742 51 345 9.0 14.0 0.00 0.00 0.00 43 1011.1
20260505231628 51 355 10.0 14.0 0.00 0.00 0.00 43 1011.0
20260505231506 51 327 8.0 14.0 0.00 0.00 0.00 44 1011.0
20260505231429 51 355 8.0 14.0 0.00 0.00 0.00 44 1011.0
20260505231311 51 351 9.0 14.0 0.00 0.00 0.00 44 1011.0
20260505231214 51 38 9.0 14.0 0.00 0.00 0.00 45 1011.0
20260505231117 51 10 8.0 14.0 0.00 0.00 0.00 45 1011.0
20260505231021 50 339 8.0 14.0 0.00 0.00 0.00 44 1011.0
20260505230907 50 23 8.0 15.0 0.00 0.00 0.00 45 1010.9
20260505230811 50 336 9.0 15.0 0.00 0.00 0.00 45 1011.0
20260505230713 50 312 9.0 15.0 0.00 0.00 0.00 45 1010.9
20260505230617 50 18 7.0 15.0 0.00 0.00 0.00 45 1010.9
20260505230520 50 297 5.0 15.0 0.00 0.00 0.00 46 1010.9
20260505230406 50 344 6.0 15.0 0.00 0.00 0.00 45 1011.0
20260505230330 50 355 9.0 15.0 0.00 0.00 0.00 45 1011.0
20260505230206 50 328 11.0 16.0 0.00 0.00 0.00 43 1011.1
20260505230109 50 355 10.0 16.0 0.00 0.00 0.00 43 1011.0
20260505230013 50 355 11.0 16.0 0.00 0.00 0.00 44 1011.0
20260505225936 50 5 11.0 16.0 0.00 0.00 0.00 44 1011.1
20260505225819 50 342 10.0 16.0 0.00 0.00 0.00 45 1011.0
20260505225705 50 360 9.0 16.0 0.00 0.00 0.00 45 1011.1
20260505225609 50 360 10.0 16.0 0.00 0.00 0.00 45 1011.0
20260505225511 50 328 11.0 16.0 0.00 0.00 0.00 45 1011.0
20260505225414 49 355 11.0 16.0 0.00 0.00 0.00 46 1011.1
20260505225318 49 355 11.0 15.0 0.00 0.00 0.00 47 1011.0
20260505225220 49 360 9.0 14.0 0.00 0.00 0.00 46 1010.9
20260505225128 49 332 6.0 13.0 0.00 0.00 0.00 48 1011.0
20260505225031 49 325 6.0 13.0 0.00 0.00 0.00 47 1011.1
20260505224906 48 321 7.0 13.0 0.00 0.00 0.00 47 1011.0
20260505224830 48 355 7.0 14.0 0.00 0.00 0.00 47 1011.0
20260505224711 48 355 7.0 14.0 0.00 0.00 0.00 47 1011.0
20260505224614 48 338 7.0 14.0 0.00 0.00 0.00 47 1011.0
20260505224537 48 319 6.0 14.0 0.00 0.00 0.00 47 1011.1
20260505224419 48 342 7.0 14.0 0.00 0.00 0.00 48 1010.9
20260505224327 48 342 8.0 14.0 0.00 0.00 0.00 47 1011.0
20260505224209 48 336 9.0 14.0 0.00 0.00 0.00 46 1011.0
20260505224112 48 339 10.0 14.0 0.00 0.00 0.00 46 1010.9
20260505224015 48 12 9.0 16.0 0.00 0.00 0.00 48 1011.0
20260505223939 49 328 7.0 16.0 0.00 0.00 0.00 47 1011.0
20260505223821 49 318 5.0 16.0 0.00 0.00 0.00 47 1011.1
20260505223744 48 287 6.0 16.0 0.00 0.00 0.00 47 1011.0
20260505223631 48 333 8.0 16.0 0.00 0.00 0.00 46 1010.9
20260505223507 48 10 10.0 16.0 0.00 0.00 0.00 46 1011.0
20260505223411 48 355 9.0 16.0 0.00 0.00 0.00 46 1011.0
20260505223334 48 12 10.0 16.0 0.00 0.00 0.00 47 1011.1
20260505223217 48 5 9.0 16.0 0.00 0.00 0.00 47 1011.0
20260505223119 48 329 8.0 16.0 0.00 0.00 0.00 48 1011.0
20260505223006 48 13 9.0 15.0 0.00 0.00 0.00 46 1011.0
20260505222929 48 336 9.0 15.0 0.00 0.00 0.00 46 1010.9
20260505222852 48 5 8.0 15.0 0.00 0.00 0.00 46 1011.0
20260505222707 48 343 9.0 15.0 0.00 0.00 0.00 46 1011.0
20260505222630 48 346 10.0 15.0 0.00 0.00 0.00 46 1011.0
20260505222506 48 342 7.0 15.0 0.00 0.00 0.00 48 1011.0
20260505222409 48 336 8.0 15.0 0.00 0.00 0.00 46 1011.0
20260505222316 48 327 10.0 15.0 0.00 0.00 0.00 46 1011.0
20260505222219 48 336 10.0 16.0 0.00 0.00 0.00 46 1011.0
20260505222122 48 342 10.0 16.0 0.00 0.00 0.00 46 1010.9
20260505222006 48 350 10.0 16.0 0.00 0.00 0.00 46 1011.0
20260505221929 48 336 10.0 16.0 0.00 0.00 0.00 46 1011.1
20260505221806 48 5 9.0 16.0 0.00 0.00 0.00 47 1011.0
20260505221713 48 5 8.0 16.0 0.00 0.00 0.00 47 1011.0
20260505221616 48 5 8.0 16.0 0.00 0.00 0.00 47 1011.1
20260505221520 48 15 9.0 17.0 0.00 0.00 0.00 47 1011.1
20260505221445 48 294 10.0 17.0 0.00 0.00 0.00 46 1011.1
20260505221326 48 311 8.0 17.0 0.00 0.00 0.00 47 1011.1
20260505221209 48 343 9.0 17.0 0.00 0.00 0.00 47 1011.1
20260505221113 48 343 10.0 17.0 0.00 0.00 0.00 46 1011.1
20260505221020 48 323 9.0 17.0 0.00 0.00 0.00 46 1011.0
20260505220923 48 328 7.0 17.0 0.00 0.00 0.00 48 1011.1
20260505220826 48 326 9.0 17.0 0.00 0.00 0.00 46 1011.0
20260505220708 48 327 11.0 17.0 0.00 0.00 0.00 46 1011.1
20260505220611 48 338 10.0 19.0 0.00 0.00 0.00 47 1011.0
20260505220514 48 355 11.0 19.0 0.00 0.00 0.00 47 1011.2
20260505220418 48 304 10.0 19.0 0.00 0.00 0.00 47 1011.1
20260505220305 48 351 8.0 19.0 0.00 0.00 0.00 47 1011.2
20260505220228 49 350 8.0 19.0 0.00 0.00 0.00 47 1011.1
20260505220105 49 349 12.0 19.0 0.00 0.00 0.00 46 1011.2
20260505220009 49 308 14.0 19.0 0.00 0.00 0.00 46 1011.2
20260505215913 49 306 11.0 19.0 0.00 0.00 0.00 46 1011.1
20260505215818 49 338 8.0 16.0 0.00 0.00 0.00 46 1011.1
20260505215745 49 5 8.0 16.0 0.00 0.00 0.00 46 1011.2
20260505215608 49 315 11.0 16.0 0.00 0.00 0.00 47 1011.2
20260505215531 49 360 11.0 16.0 0.00 0.00 0.00 47 1011.1
20260505215431 49 323 11.0 16.0 0.00 0.00 0.00 47 1011.1
20260505215313 49 350 8.0 15.0 0.00 0.00 0.00 46 1011.2
20260505215237 49 326 7.0 14.0 0.00 0.00 0.00 48 1011.1
20260505215141 49 322 7.0 14.0 0.00 0.00 0.00 47 1011.1
20260505215024 49 323 7.0 14.0 0.00 0.00 0.00 48 1011.2
20260505214913 49 337 7.0 15.0 0.00 0.00 0.00 47 1011.2
20260505214837 49 339 7.0 17.0 0.00 0.00 0.00 47 1011.2
20260505214720 49 342 7.0 17.0 0.00 0.00 0.00 49 1011.2
20260505214606 49 293 6.0 17.0 0.00 0.00 0.00 48 1011.2
20260505214530 49 281 6.0 17.0 0.00 0.00 0.00 47 1011.2
20260505214406 49 315 8.0 17.0 0.00 0.00 0.00 47 1011.2
20260505214331 49 339 10.0 19.0 0.00 0.00 0.00 46 1011.2
20260505214239 49 319 11.0 19.0 0.00 0.00 0.00 46 1011.2
20260505214121 49 343 12.0 19.0 0.00 0.00 0.00 45 1011.2
20260505214026 49 342 10.0 19.0 0.00 0.00 0.00 47 1011.1
20260505213908 49 297 9.0 19.0 0.00 0.00 0.00 47 1011.2
20260505213833 49 336 11.0 19.0 0.00 0.00 0.00 47 1011.2
20260505213716 49 335 11.0 19.0 0.00 0.00 0.00 46 1011.2
20260505213620 49 328 13.0 19.0 0.00 0.00 0.00 47 1011.2
20260505213510 49 303 10.0 19.0 0.00 0.00 0.00 47 1011.2
20260505213414 49 314 10.0 19.0 0.00 0.00 0.00 46 1011.2
20260505213318 49 343 12.0 19.0 0.00 0.00 0.00 46 1011.1
20260505213224 49 11 11.0 19.0 0.00 0.00 0.00 45 1011.2
20260505213128 49 355 8.0 16.0 0.00 0.00 0.00 47 1011.2
20260505213011 49 288 9.0 16.0 0.00 0.00 0.00 47 1011.3
20260505212920 49 344 9.0 16.0 0.00 0.00 0.00 46 1011.3
20260505212824 49 15 8.0 16.0 0.00 0.00 0.00 47 1011.2
20260505212728 49 285 10.0 16.0 0.00 0.00 0.00 46 1011.2
20260505212605 49 340 10.0 16.0 0.00 0.00 0.00 49 1011.3
20260505212530 49 329 7.0 15.0 0.00 0.00 0.00 49 1011.2
20260505212413 49 5 7.0 15.0 0.00 0.00 0.00 48 1011.2
20260505212318 49 355 8.0 15.0 0.00 0.00 0.00 48 1011.3
20260505212206 49 327 8.0 15.0 0.00 0.00 0.00 49 1011.2
20260505212131 49 302 7.0 15.0 0.00 0.00 0.00 49 1011.2
20260505212007 49 350 5.0 15.0 0.00 0.00 0.00 47 1011.1
20260505211911 49 315 8.0 15.0 0.00 0.00 0.00 47 1011.2
20260505211816 49 330 10.0 15.0 0.00 0.00 0.00 46 1011.2
20260505211704 49 313 10.0 16.0 0.00 0.00 0.00 48 1011.1
20260505211628 49 329 9.0 16.0 0.00 0.00 0.00 48 1011.1
20260505211505 49 316 7.0 16.0 0.00 0.00 0.00 48 1011.3
20260505211411 49 317 7.0 16.0 0.00 0.00 0.00 46 1011.3
20260505211335 49 341 8.0 16.0 0.00 0.00 0.00 46 1011.2
20260505211216 49 313 7.0 16.0 0.00 0.00 0.00 46 1011.3
20260505211121 49 344 7.0 16.0 0.00 0.00 0.00 47 1011.2
20260505211011 50 349 9.0 16.0 0.00 0.00 0.00 47 1011.3
20260505210915 50 355 9.0 16.0 0.00 0.00 0.00 46 1011.3
20260505210819 50 317 8.0 17.0 0.00 0.00 0.00 47 1011.3
20260505210724 50 325 6.0 17.0 0.00 0.00 0.00 46 1011.3
20260505210608 50 324 7.0 17.0 0.00 0.00 0.00 47 1011.3
20260505210510 50 330 7.0 17.0 0.00 0.00 0.00 46 1011.3
20260505210419 50 17 7.0 17.0 0.00 0.00 0.00 45 1011.4
20260505210323 50 13 7.0 17.0 0.00 0.00 0.00 47 1011.3
20260505210227 50 12 10.0 18.0 0.00 0.00 0.00 46 1011.3
20260505210110 50 344 11.0 18.0 0.00 0.00 0.00 45 1011.3
20260505210015 50 335 11.0 18.0 0.00 0.00 0.00 47 1011.3
20260505205918 50 306 11.0 18.0 0.00 0.00 0.00 46 1011.3
20260505205807 50 355 9.0 18.0 0.00 0.00 0.00 45 1011.4
20260505205712 50 332 9.0 18.0 0.00 0.00 0.00 46 1011.3
20260505205615 50 355 11.0 18.0 0.00 0.00 0.00 47 1011.3
20260505205541 50 333 11.0 18.0 0.00 0.00 0.00 46 1011.3
20260505205442 50 338 11.0 18.0 0.00 0.00 0.00 47 1011.2
20260505205326 50 321 11.0 17.0 0.00 0.00 0.00 47 1011.3
20260505205210 50 344 11.0 17.0 0.00 0.00 0.00 46 1011.2
20260505205118 50 323 9.0 17.0 0.00 0.00 0.00 45 1011.3
20260505205023 50 13 8.0 17.0 0.00 0.00 0.00 46 1011.3
20260505204906 50 5 9.0 17.0 0.00 0.00 0.00 46 1011.3
20260505204830 50 9 10.0 17.0 0.00 0.00 0.00 47 1011.3
20260505204707 50 335 10.0 17.0 0.00 0.00 0.00 46 1011.3
20260505204611 49 21 9.0 17.0 0.00 0.00 0.00 47 1011.3
20260505204518 49 344 9.0 17.0 0.00 0.00 0.00 46 1011.2
20260505204423 50 324 9.0 17.0 0.00 0.00 0.00 47 1011.3
20260505204308 49 19 8.0 20.0 0.00 0.00 0.00 46 1011.3
20260505204211 49 350 9.0 20.0 0.00 0.00 0.00 46 1011.3
20260505204115 49 338 11.0 20.0 0.00 0.00 0.00 46 1011.4
20260505204020 49 5 10.0 20.0 0.00 0.00 0.00 46 1011.5
20260505203930 49 321 6.0 20.0 0.00 0.00 0.00 48 1011.4
20260505203806 49 355 8.0 20.0 0.00 0.00 0.00 46 1011.4
20260505203730 49 355 10.0 20.0 0.00 0.00 0.00 46 1011.3
20260505203607 49 355 14.0 20.0 0.00 0.00 0.00 44 1011.3
20260505203512 50 333 14.0 20.0 0.00 0.00 0.00 45 1011.4
20260505203436 50 355 11.0 17.0 0.00 0.00 0.00 46 1011.3
20260505203319 50 338 11.0 17.0 0.00 0.00 0.00 47 1011.2
20260505203228 50 355 11.0 17.0 0.00 0.00 0.00 47 1011.3
20260505203105 50 290 11.0 17.0 0.00 0.00 0.00 49 1011.3
20260505203009 50 301 12.0 17.0 0.00 0.00 0.00 47 1011.3
20260505202913 50 302 11.0 17.0 0.00 0.00 0.00 48 1011.3
20260505202817 50 300 11.0 15.0 0.00 0.00 0.00 48 1011.3
20260505202704 50 11 10.0 17.0 0.00 0.00 0.00 46 1011.4
20260505202609 50 346 8.0 17.0 0.00 0.00 0.00 49 1011.4
20260505202513 50 317 7.0 17.0 0.00 0.00 0.00 48 1011.5
20260505202418 50 333 8.0 17.0 0.00 0.00 0.00 47 1011.4
20260505202322 50 336 8.0 17.0 0.00 0.00 0.00 47 1011.4
20260505202226 50 5 8.0 17.0 0.00 0.00 0.00 46 1011.4
20260505202108 50 344 9.0 20.0 0.00 0.00 0.00 45 1011.5
20260505202017 50 360 11.0 20.0 0.00 0.00 0.00 45 1011.4
20260505201942 51 323 10.0 20.0 0.00 0.00 0.00 46 1011.3
20260505201807 51 319 9.0 20.0 0.00 0.00 0.00 46 1011.5
20260505201710 51 347 9.0 20.0 0.00 0.00 0.00 45 1011.4
20260505201614 51 9 8.0 20.0 0.00 0.00 0.00 46 1011.4
20260505201519 51 33 11.0 20.0 0.00 0.00 0.00 49 1011.5
20260505201407 51 317 11.0 20.0 0.00 0.00 0.00 46 1011.3
20260505201311 50 292 9.0 20.0 0.00 0.00 0.00 52 1011.4
20260505201216 50 291 8.0 18.0 0.00 0.00 0.00 47 1011.4
20260505201141 50 312 7.0 18.0 0.00 0.00 0.00 48 1011.4
20260505201023 50 328 6.0 19.0 0.00 0.00 0.00 47 1011.4
20260505200927 50 300 10.0 19.0 0.00 0.00 0.00 46 1011.6
20260505200829 50 323 10.0 19.0 0.00 0.00 0.00 45 1011.5
20260505200717 50 320 8.0 19.0 0.00 0.00 0.00 48 1011.4
20260505200619 50 340 6.0 19.0 0.00 0.00 0.00 47 1011.6
20260505200504 50 351 7.0 19.0 0.00 0.00 0.00 47 1011.3
20260505200408 50 348 10.0 19.0 0.00 0.00 0.00 46 1011.4
20260505200312 50 355 10.0 19.0 0.00 0.00 0.00 46 1011.4
20260505200217 50 328 8.0 19.0 0.00 0.00 0.00 47 1011.4
20260505200128 50 11 7.0 15.0 0.00 0.00 0.00 48 1011.5
20260505200030 50 355 7.0 15.0 0.00 0.00 0.00 47 1011.4
20260505195914 50 343 7.0 17.0 0.00 0.00 0.00 47 1011.4
20260505195819 50 296 8.0 17.0 0.00 0.00 0.00 45 1011.3
20260505195723 50 355 9.0 17.0 0.00 0.00 0.00 46 1011.4
20260505195628 50 360 9.0 17.0 0.00 0.00 0.00 47 1011.4
20260505195505 50 34 7.0 17.0 0.00 0.00 0.00 49 1011.4
20260505195413 49 325 7.0 17.0 0.00 0.00 0.00 47 1011.3
20260505195318 49 347 9.0 17.0 0.00 0.00 0.00 47 1011.4
20260505195223 49 347 10.0 17.0 0.00 0.00 0.00 46 1011.4
20260505195108 49 303 9.0 16.0 0.00 0.00 0.00 47 1011.4
20260505195012 49 325 11.0 16.0 0.00 0.00 0.00 47 1011.4
20260505194916 49 324 9.0 16.0 0.00 0.00 0.00 47 1011.4
20260505194805 49 360 8.0 16.0 0.00 0.00 0.00 49 1011.4
20260505194709 49 355 8.0 16.0 0.00 0.00 0.00 47 1011.4
20260505194614 49 27 7.0 16.0 0.00 0.00 0.00 47 1011.3
20260505194519 48 17 7.0 16.0 0.00 0.00 0.00 47 1011.4
20260505194423 48 355 9.0 16.0 0.00 0.00 0.00 47 1011.4
20260505194312 48 329 9.0 20.0 0.00 0.00 0.00 47 1011.3
20260505194214 48 319 8.0 20.0 0.00 0.00 0.00 48 1011.4
20260505194120 48 315 8.0 20.0 0.00 0.00 0.00 46 1011.4
20260505194024 48 308 9.0 20.0 0.00 0.00 0.00 46 1011.3
20260505193928 49 298 10.0 20.0 0.00 0.00 0.00 45 1011.2
20260505193811 49 342 10.0 20.0 0.00 0.00 0.00 47 1011.4
20260505193735 49 339 10.0 20.0 0.00 0.00 0.00 47 1011.4
20260505193623 48 9 12.0 20.0 0.00 0.00 0.00 46 1011.4
20260505193508 49 327 11.0 20.0 0.00 0.00 0.00 46 1011.3
20260505193412 49 333 7.0 20.0 0.00 0.00 0.00 49 1011.4
20260505193316 49 325 5.0 19.0 0.00 0.00 0.00 48 1011.3
20260505193221 49 342 6.0 19.0 0.00 0.00 0.00 47 1011.3
20260505193106 49 15 10.0 19.0 0.00 0.00 0.00 45 1011.4
20260505193014 49 355 11.0 19.0 0.00 0.00 0.00 45 1011.3
20260505192918 49 13 11.0 19.0 0.00 0.00 0.00 47 1011.4
20260505192821 49 355 9.0 19.0 0.00 0.00 0.00 45 1011.4
20260505192706 49 309 11.0 19.0 0.00 0.00 0.00 46 1011.3
20260505192630 49 360 11.0 19.0 0.00 0.00 0.00 45 1011.4
20260505192507 49 344 12.0 19.0 0.00 0.00 0.00 44 1011.4
20260505192415 49 5 10.0 16.0 0.00 0.00 0.00 45 1011.4
20260505192339 49 351 9.0 15.0 0.00 0.00 0.00 46 1011.4
20260505192222 49 336 9.0 15.0 0.00 0.00 0.00 46 1011.4
20260505192126 49 16 8.0 15.0 0.00 0.00 0.00 47 1011.4
20260505192010 49 355 8.0 15.0 0.00 0.00 0.00 46 1011.4
20260505191915 50 28 7.0 15.0 0.00 0.00 0.00 47 1011.4
20260505191819 50 59 8.0 15.0 0.00 0.00 0.00 46 1011.4
20260505191728 50 324 7.0 15.0 0.00 0.00 0.00 46 1011.4
20260505191605 50 355 6.0 15.0 0.00 0.00 0.00 47 1011.5
20260505191509 50 355 9.0 15.0 0.00 0.00 0.00 46 1011.5
20260505191433 50 13 10.0 15.0 0.00 0.00 0.00 48 1011.4
20260505191336 49 19 9.0 15.0 0.00 0.00 0.00 49 1011.4
20260505191218 49 342 7.0 15.0 0.00 0.00 0.00 46 1011.4
20260505191106 49 15 6.0 15.0 0.00 0.00 0.00 47 1011.5
20260505191009 49 355 6.0 15.0 0.00 0.00 0.00 47 1011.4
20260505190914 49 360 7.0 18.0 0.00 0.00 0.00 48 1011.5
20260505190818 49 346 8.0 18.0 0.00 0.00 0.00 45 1011.4
20260505190742 49 301 10.0 18.0 0.00 0.00 0.00 47 1011.4
20260505190606 49 305 10.0 18.0 0.00 0.00 0.00 47 1011.4
20260505190530 48 286 7.0 18.0 0.00 0.00 0.00 48 1011.5
20260505190416 48 17 8.0 18.0 0.00 0.00 0.00 48 1011.4
20260505190319 48 19 8.0 18.0 0.00 0.00 0.00 48 1011.4
20260505190204 48 335 6.0 18.0 0.00 0.00 0.00 47 1011.5
20260505190128 48 344 10.0 18.0 0.00 0.00 0.00 48 1011.5
20260505190030 48 27 11.0 18.0 0.00 0.00 0.00 45 1011.5
20260505185905 48 12 11.0 17.0 0.00 0.00 0.00 46 1011.7
20260505185809 48 348 10.0 20.0 0.00 0.00 0.00 46 1011.7
20260505185718 48 360 9.0 24.0 0.00 0.00 0.00 47 1011.6
20260505185623 48 347 8.0 24.0 0.00 0.00 0.00 49 1011.5
20260505185527 48 317 8.0 24.0 0.00 0.00 0.00 50 1011.7
20260505185405 48 291 8.0 24.0 0.00 0.00 0.00 48 1011.6
20260505185330 48 306 9.0 24.0 0.00 0.00 0.00 48 1011.5
20260505185207 48 309 12.0 24.0 0.00 0.00 0.00 46 1011.5
20260505185114 48 305 13.0 24.0 0.00 0.00 0.00 45 1011.6
20260505185039 48 292 14.0 24.0 0.00 0.00 0.00 46 1011.7
20260505184923 48 355 15.0 24.0 0.00 0.00 0.00 46 1011.6
20260505184808 49 288 12.0 18.0 0.00 0.00 0.00 46 1011.5
20260505184712 49 313 11.0 18.0 0.00 0.00 0.00 46 1011.5
20260505184616 49 327 10.0 18.0 0.00 0.00 0.00 48 1011.4
20260505184525 49 45 9.0 18.0 0.00 0.00 0.00 46 1011.5
20260505184409 49 355 8.0 18.0 0.00 0.00 0.00 46 1011.4
20260505184313 49 355 7.0 22.0 0.00 0.00 0.00 45 1011.4
20260505184238 49 337 8.0 22.0 0.00 0.00 0.00 45 1011.5
20260505184121 49 339 9.0 22.0 0.00 0.00 0.00 45 1011.5
20260505184006 49 306 11.0 22.0 0.00 0.00 0.00 45 1011.5
20260505183911 49 334 11.0 22.0 0.00 0.00 0.00 45 1011.6
20260505183819 49 346 10.0 22.0 0.00 0.00 0.00 46 1011.6
20260505183723 49 333 10.0 22.0 0.00 0.00 0.00 47 1011.6
20260505183609 49 11 12.0 22.0 0.00 0.00 0.00 46 1011.5
20260505183512 49 311 11.0 22.0 0.00 0.00 0.00 49 1011.6
20260505183415 49 327 10.0 17.0 0.00 0.00 0.00 46 1011.4
20260505183320 49 331 11.0 17.0 0.00 0.00 0.00 45 1011.6
20260505183249 48 360 11.0 16.0 0.00 0.00 0.00 47 1011.6
20260505183105 48 5 9.0 16.0 0.00 0.00 0.00 46 1011.6
20260505183030 48 337 9.0 16.0 0.00 0.00 0.00 46 1011.6
20260505182907 48 13 9.0 16.0 0.00 0.00 0.00 47 1011.5
20260505182812 48 336 9.0 16.0 0.00 0.00 0.00 46 1011.4
20260505182716 48 311 10.0 16.0 0.00 0.00 0.00 46 1011.6
20260505182623 48 313 8.0 16.0 0.00 0.00 0.00 48 1011.5
20260505182508 48 16 7.0 16.0 0.00 0.00 0.00 47 1011.5
20260505182432 48 333 9.0 16.0 0.00 0.00 0.00 50 1011.4
20260505182315 48 342 10.0 16.0 0.00 0.00 0.00 48 1011.5
20260505182239 48 310 10.0 16.0 0.00 0.00 0.00 47 1011.4
20260505182123 48 317 9.0 15.0 0.00 0.00 0.00 46 1011.4
20260505182023 48 329 9.0 15.0 0.00 0.00 0.00 48 1011.4
20260505181932 48 296 10.0 15.0 0.00 0.00 0.00 47 1011.4
20260505181814 48 332 10.0 15.0 0.00 0.00 0.00 49 1011.4
20260505181717 48 313 10.0 15.0 0.00 0.00 0.00 48 1011.6
20260505181622 48 325 10.0 15.0 0.00 0.00 0.00 47 1011.6
20260505181526 48 330 10.0 16.0 0.00 0.00 0.00 48 1011.5
20260505181410 48 329 9.0 16.0 0.00 0.00 0.00 47 1011.5
20260505181315 48 346 7.0 16.0 0.00 0.00 0.00 48 1011.4
20260505181244 47 345 8.0 16.0 0.00 0.00 0.00 48 1011.4
20260505181128 47 360 9.0 16.0 0.00 0.00 0.00 48 1011.6
20260505181051 47 30 10.0 16.0 0.00 0.00 0.00 50 1011.4
20260505180907 47 338 9.0 16.0 0.00 0.00 0.00 48 1011.4
20260505180811 47 351 9.0 16.0 0.00 0.00 0.00 49 1011.4
20260505180716 47 348 8.0 16.0 0.00 0.00 0.00 49 1011.5
20260505180605 47 5 6.0 15.0 0.00 0.00 0.00 48 1011.4
20260505180509 47 314 8.0 15.0 0.00 0.00 0.00 47 1011.3
20260505180431 47 328 10.0 15.0 0.00 0.00 0.00 48 1011.3
20260505180309 47 294 9.0 15.0 0.00 0.00 0.00 48 1011.4
20260505180214 47 326 8.0 15.0 0.00 0.00 0.00 48 1011.4
20260505180116 47 348 7.0 17.0 0.00 0.00 0.00 48 1011.4
20260505180021 47 334 7.0 17.0 0.00 0.00 0.00 48 1011.4
20260505175930 47 338 9.0 17.0 0.00 0.00 0.00 47 1011.5
20260505175807 47 345 9.0 19.0 0.00 0.00 0.00 47 1011.5
20260505175731 47 348 10.0 19.0 0.00 0.00 0.00 46 1011.4
20260505175611 47 333 11.0 19.0 0.00 0.00 0.00 47 1011.3
20260505175512 47 344 12.0 19.0 0.00 0.00 0.00 46 1011.4
20260505175413 47 339 12.0 20.0 0.00 0.00 0.00 45 1011.4
20260505175315 47 355 11.0 20.0 0.00 0.00 0.00 47 1011.4
20260505175223 47 318 10.0 20.0 0.00 0.00 0.00 48 1011.5
20260505175123 47 325 12.0 20.0 0.00 0.00 0.00 47 1011.5
20260505175026 47 330 14.0 20.0 0.00 0.00 0.00 46 1011.4
20260505174907 47 360 13.0 20.0 0.00 0.00 0.00 47 1011.4
20260505174811 47 5 14.0 20.0 0.00 0.00 0.00 47 1011.5
20260505174716 47 340 14.0 20.0 0.00 0.00 0.00 48 1011.7
20260505174645 47 355 13.0 20.0 0.00 0.00 0.00 47 1011.4
20260505174548 47 20 13.0 20.0 0.00 0.00 0.00 47 1011.4
20260505174405 47 360 13.0 19.0 0.00 0.00 0.00 47 1011.4
20260505174309 47 38 12.0 19.0 0.00 0.00 0.00 48 1011.4
20260505174214 47 346 10.0 19.0 0.00 0.00 0.00 47 1011.6
20260505174117 47 329 11.0 19.0 0.00 0.00 0.00 47 1011.6
20260505174021 48 27 13.0 19.0 0.00 0.00 0.00 46 1011.6
20260505173926 48 328 13.0 19.0 0.00 0.00 0.00 45 1011.6
20260505173808 48 336 10.0 17.0 0.00 0.00 0.00 47 1011.5
20260505173712 48 11 9.0 13.0 0.00 0.00 0.00 46 1011.4
20260505173615 48 303 8.0 15.0 0.00 0.00 0.00 47 1011.4
20260505173518 48 313 7.0 15.0 0.00 0.00 0.00 49 1011.3
20260505173441 48 327 8.0 15.0 0.00 0.00 0.00 48 1011.3
20260505173343 48 309 8.0 15.0 0.00 0.00 0.00 49 1011.3
20260505173250 48 301 7.0 15.0 0.00 0.00 0.00 47 1011.3
20260505173107 48 12 6.0 16.0 0.00 0.00 0.00 48 1011.3
20260505173010 48 38 8.0 16.0 0.00 0.00 0.00 48 1011.4
20260505172915 48 32 10.0 16.0 0.00 0.00 0.00 47 1011.3
20260505172839 48 345 8.0 16.0 0.00 0.00 0.00 47 1011.4
20260505172721 48 5 4.0 16.0 0.00 0.00 0.00 49 1011.3
20260505172609 48 194 5.0 16.0 0.00 0.00 0.00 47 1011.3
20260505172513 48 355 8.0 16.0 0.00 0.00 0.00 49 1011.3
20260505172418 48 5 8.0 16.0 0.00 0.00 0.00 48 1011.3
20260505172322 48 337 8.0 16.0 0.00 0.00 0.00 51 1011.3
20260505172206 48 284 9.0 16.0 0.00 0.00 0.00 48 1011.3
20260505172110 48 340 9.0 16.0 0.00 0.00 0.00 47 1011.3
20260505172018 47 346 8.0 16.0 0.00 0.00 0.00 48 1011.3
20260505171921 47 329 8.0 16.0 0.00 0.00 0.00 48 1011.4
20260505171824 47 325 10.0 16.0 0.00 0.00 0.00 47 1011.4
20260505171728 47 347 10.0 16.0 0.00 0.00 0.00 47 1011.4
20260505171610 47 355 9.0 16.0 0.00 0.00 0.00 52 1011.5
20260505171513 47 292 7.0 16.0 0.00 0.00 0.00 50 1011.4
20260505171417 47 20 7.0 16.0 0.00 0.00 0.00 50 1011.6
20260505171305 47 331 8.0 16.0 0.00 0.00 0.00 50 1011.5
20260505171208 47 15 8.0 16.0 0.00 0.00 0.00 50 1011.5
20260505171113 47 16 8.0 16.0 0.00 0.00 0.00 48 1011.5
20260505171037 47 304 10.0 17.0 0.00 0.00 0.00 49 1011.5
20260505170920 47 322 9.0 17.0 0.00 0.00 0.00 48 1011.6
20260505170844 47 322 8.0 18.0 0.00 0.00 0.00 50 1011.5
20260505170710 47 303 9.0 18.0 0.00 0.00 0.00 48 1011.5
20260505170615 47 360 10.0 18.0 0.00 0.00 0.00 49 1011.6
20260505170519 47 336 10.0 18.0 0.00 0.00 0.00 48 1011.6
20260505170442 47 312 9.0 18.0 0.00 0.00 0.00 49 1011.5
20260505170325 47 314 10.0 19.0 0.00 0.00 0.00 48 1011.4
20260505170228 47 308 11.0 19.0 0.00 0.00 0.00 49 1011.5
20260505170105 47 333 11.0 19.0 0.00 0.00 0.00 48 1011.6
20260505170012 47 339 9.0 19.0 0.00 0.00 0.00 48 1011.6
20260505165914 47 325 9.0 19.0 0.00 0.00 0.00 47 1011.4
20260505165816 47 355 9.0 19.0 0.00 0.00 0.00 49 1011.6
20260505165740 47 314 10.0 19.0 0.00 0.00 0.00 50 1011.5
20260505165642 47 314 13.0 19.0 0.00 0.00 0.00 49 1011.7
20260505165505 47 345 9.0 19.0 0.00 0.00 0.00 51 1011.7
20260505165409 46 18 6.0 15.0 0.00 0.00 0.00 52 1011.6
20260505165317 46 11 7.0 13.0 0.00 0.00 0.00 50 1011.5
20260505165220 46 346 6.0 13.0 0.00 0.00 0.00 52 1011.6
20260505165144 46 355 5.0 13.0 0.00 0.00 0.00 52 1011.7
20260505165028 46 325 7.0 13.0 0.00 0.00 0.00 51 1011.7
20260505164904 46 5 9.0 13.0 0.00 0.00 0.00 49 1011.6
20260505164809 46 355 8.0 13.0 0.00 0.00 0.00 50 1011.6
20260505164717 46 49 7.0 13.0 0.00 0.00 0.00 50 1011.7
20260505164620 46 15 8.0 13.0 0.00 0.00 0.00 50 1011.6
20260505164523 46 317 9.0 13.0 0.00 0.00 0.00 49 1011.7
20260505164428 46 328 9.0 13.0 0.00 0.00 0.00 51 1011.6
20260505164305 46 335 5.0 13.0 0.00 0.00 0.00 52 1011.6
20260505164210 46 350 3.0 14.0 0.00 0.00 0.00 52 1011.6
20260505164117 46 309 4.0 15.0 0.00 0.00 0.00 53 1011.6
20260505164021 46 294 6.0 15.0 0.00 0.00 0.00 51 1011.6
20260505163945 46 325 6.0 15.0 0.00 0.00 0.00 51 1011.6
20260505163808 46 306 6.0 15.0 0.00 0.00 0.00 49 1011.6
20260505163711 46 5 7.0 15.0 0.00 0.00 0.00 50 1011.6
20260505163616 46 5 6.0 15.0 0.00 0.00 0.00 51 1011.6
20260505163520 46 22 8.0 15.0 0.00 0.00 0.00 51 1011.6
20260505163427 46 355 9.0 15.0 0.00 0.00 0.00 50 1011.6
20260505163329 46 355 6.0 15.0 0.00 0.00 0.00 52 1011.7
20260505163213 46 314 5.0 13.0 0.00 0.00 0.00 52 1011.6
20260505163118 46 334 8.0 16.0 0.00 0.00 0.00 50 1011.5
20260505163022 46 344 7.0 19.0 0.00 0.00 0.00 52 1011.6
20260505162906 46 331 6.0 19.0 0.00 0.00 0.00 51 1011.6
20260505162830 46 342 6.0 19.0 0.00 0.00 0.00 51 1011.5
20260505162717 46 9 6.0 19.0 0.00 0.00 0.00 50 1011.4
20260505162622 46 355 6.0 19.0 0.00 0.00 0.00 49 1011.6
20260505162526 46 40 7.0 19.0 0.00 0.00 0.00 50 1011.4
20260505162409 46 315 10.0 19.0 0.00 0.00 0.00 50 1011.5
20260505162332 46 10 13.0 19.0 0.00 0.00 0.00 48 1011.5
20260505162212 47 17 14.0 19.0 0.00 0.00 0.00 48 1011.4
20260505162117 47 347 12.0 19.0 0.00 0.00 0.00 49 1011.2
20260505162005 47 351 8.0 18.0 0.00 0.00 0.00 50 1011.3
20260505161909 47 351 9.0 19.0 0.00 0.00 0.00 51 1011.4
20260505161833 47 53 9.0 20.0 0.00 0.00 0.00 49 1011.5
20260505161716 47 51 9.0 20.0 0.00 0.00 0.00 52 1011.4
20260505161619 47 345 9.0 20.0 0.00 0.00 0.00 50 1011.4
20260505161522 47 23 9.0 20.0 0.00 0.00 0.00 49 1011.5
20260505161429 47 56 8.0 20.0 0.00 0.00 0.00 50 1011.4
20260505161352 47 348 10.0 20.0 0.00 0.00 0.00 49 1011.7
20260505161207 47 314 14.0 20.0 0.00 0.00 0.00 50 1011.6
20260505161110 47 350 15.0 20.0 0.00 0.00 0.00 49 1011.4
20260505161033 47 32 12.0 22.0 0.00 0.00 0.00 52 1011.8
20260505160915 46 360 8.0 22.0 0.00 0.00 0.00 52 1011.5
20260505160818 46 35 8.0 22.0 0.00 0.00 0.00 54 1011.5
20260505160706 46 20 9.0 22.0 0.00 0.00 0.00 52 1011.8
20260505160628 46 355 11.0 22.0 0.00 0.00 0.00 53 1011.4
20260505160531 46 319 12.0 22.0 0.00 0.00 0.00 50 1011.6
20260505160406 46 355 14.0 22.0 0.00 0.00 0.00 50 1011.7
20260505160309 46 321 17.0 22.0 0.00 0.00 0.00 50 1011.4
20260505160233 46 320 15.0 22.0 0.00 0.00 0.00 53 1011.3
20260505160114 46 317 10.0 19.0 0.00 0.00 0.00 53 1011.2
20260505153339 45 24 8.0 16.0 0.00 0.00 0.00 51 1011.7
20260505153223 45 343 10.0 16.0 0.00 0.00 0.00 50 1011.5
20260505153108 45 360 8.0 16.0 0.00 0.00 0.00 51 1011.6
20260505153012 45 30 8.0 16.0 0.00 0.00 0.00 50 1011.6
20260505152932 45 5 10.0 16.0 0.00 0.00 0.00 50 1011.7
20260505152806 45 350 10.0 16.0 0.00 0.00 0.00 51 1011.6
20260505152731 45 355 10.0 16.0 0.00 0.00 0.00 51 1011.6
20260505152633 45 21 11.0 16.0 0.00 0.00 0.00 51 1011.7
20260505152536 45 312 11.0 16.0 0.00 0.00 0.00 53 1011.6
20260505152418 45 29 10.0 19.0 0.00 0.00 0.00 53 1011.6
20260505152305 45 10 10.0 19.0 0.00 0.00 0.00 51 1011.4
20260505152228 45 5 7.0 19.0 0.00 0.00 0.00 51 1011.6
20260505152131 45 340 7.0 19.0 0.00 0.00 0.00 51 1011.4
20260505152007 45 323 7.0 19.0 0.00 0.00 0.00 51 1011.4
20260505151910 46 295 7.0 19.0 0.00 0.00 0.00 53 1011.4
20260505151813 46 288 9.0 19.0 0.00 0.00 0.00 53 1011.4
20260505151716 46 5 12.0 19.0 0.00 0.00 0.00 52 1011.4
20260505151643 46 342 10.0 19.0 0.00 0.00 0.00 53 1011.3
20260505151505 45 355 7.0 18.0 0.00 0.00 0.00 53 1011.4
20260505151408 45 297 7.0 18.0 0.00 0.00 0.00 53 1011.4
20260505151331 45 5 7.0 18.0 0.00 0.00 0.00 51 1011.4
20260505151207 45 320 7.0 18.0 0.00 0.00 0.00 51 1011.4
20260505151110 45 298 8.0 18.0 0.00 0.00 0.00 51 1011.4
20260505151035 45 5 10.0 18.0 0.00 0.00 0.00 51 1011.4
20260505150921 45 19 12.0 18.0 0.00 0.00 0.00 51 1011.4
20260505150826 45 348 11.0 18.0 0.00 0.00 0.00 50 1011.4
20260505150727 45 346 8.0 18.0 0.00 0.00 0.00 52 1011.4
20260505150611 45 318 8.0 18.0 0.00 0.00 0.00 52 1011.5
20260505150513 45 320 9.0 18.0 0.00 0.00 0.00 52 1011.5
20260505150436 45 337 10.0 18.0 0.00 0.00 0.00 51 1011.5
20260505150337 45 5 10.0 18.0 0.00 0.00 0.00 51 1011.4
20260505150221 45 342 10.0 18.0 0.00 0.00 0.00 52 1011.4
20260505150126 45 360 12.0 18.0 0.00 0.00 0.00 50 1011.3
20260505140622 43 33 6.0 10.0 0.00 0.00 0.00 53 1011.2
20260505140509 43 330 5.0 13.0 0.00 0.00 0.00 53 1011.2
20260505140410 43 11 4.0 13.0 0.00 0.00 0.00 54 1011.1
20260505140312 43 32 5.0 13.0 0.00 0.00 0.00 54 1011.1
20260505140215 43 24 5.0 13.0 0.00 0.00 0.00 54 1011.2
20260505140115 43 355 5.0 13.0 0.00 0.00 0.00 53 1011.1
20260505130312 40 360 10.0 17.0 0.00 0.00 0.00 56 1010.4
20260505130217 40 14 8.0 17.0 0.00 0.00 0.00 57 1010.4
20260505130126 40 355 8.0 17.0 0.00 0.00 0.00 57 1010.3
20260505125041 40 345 8.0 15.0 0.00 0.00 0.00 58 1010.1
20260505124907 40 15 7.0 12.0 0.00 0.00 0.00 58 1010.0
20260505124812 40 360 8.0 13.0 0.00 0.00 0.00 58 1010.1
20260505124717 40 13 7.0 14.0 0.00 0.00 0.00 59 1010.1
20260505124622 39 342 6.0 14.0 0.00 0.00 0.00 59 1010.0
20260505124507 39 5 5.0 14.0 0.00 0.00 0.00 59 1010.0
20260505124411 39 360 6.0 14.0 0.00 0.00 0.00 59 1010.1
20260505124335 39 32 5.0 14.0 0.00 0.00 0.00 59 1010.0
20260505124223 39 5 6.0 14.0 0.00 0.00 0.00 59 1010.0
20260505124106 39 15 8.0 14.0 0.00 0.00 0.00 58 1010.1
20260505124010 39 360 10.0 14.0 0.00 0.00 0.00 58 1010.1
20260505123913 39 23 9.0 14.0 0.00 0.00 0.00 59 1010.0
20260505123838 39 12 7.0 13.0 0.00 0.00 0.00 59 1010.1
20260505123741 39 52 7.0 13.0 0.00 0.00 0.00 59 1010.0
20260505123609 39 36 6.0 13.0 0.00 0.00 0.00 60 1009.9
20260505123513 39 43 6.0 15.0 0.00 0.00 0.00 60 1009.9
20260505123438 39 351 8.0 15.0 0.00 0.00 0.00 60 1009.9
20260505123340 39 15 8.0 15.0 0.00 0.00 0.00 60 1009.9
20260505123223 39 38 8.0 15.0 0.00 0.00 0.00 60 1009.9
20260505123107 39 22 7.0 15.0 0.00 0.00 0.00 61 1009.8
20260505123012 39 360 6.0 15.0 0.00 0.00 0.00 61 1009.9
20260505122937 39 17 6.0 15.0 0.00 0.00 0.00 61 1009.9
20260505122844 39 355 8.0 15.0 0.00 0.00 0.00 61 1009.8
20260505122727 39 5 8.0 15.0 0.00 0.00 0.00 61 1009.8
20260505122630 39 320 8.0 13.0 0.00 0.00 0.00 61 1009.8
20260505122508 39 355 6.0 13.0 0.00 0.00 0.00 62 1009.8
20260505122413 39 345 6.0 11.0 0.00 0.00 0.00 63 1009.8
20260505122333 39 21 6.0 11.0 0.00 0.00 0.00 63 1009.8
20260505122208 38 17 7.0 11.0 0.00 0.00 0.00 63 1009.7
20260505122112 38 28 6.0 11.0 0.00 0.00 0.00 63 1009.8
20260505122033 38 20 6.0 11.0 0.00 0.00 0.00 63 1009.8
20260505121953 38 16 6.0 11.0 0.00 0.00 0.00 63 1009.7
20260505121805 38 9 7.0 11.0 0.00 0.00 0.00 63 1009.8
20260505121710 38 355 7.0 11.0 0.00 0.00 0.00 63 1009.7
20260505121614 38 44 7.0 11.0 0.00 0.00 0.00 63 1009.7
20260505121519 38 46 7.0 11.0 0.00 0.00 0.00 64 1009.7
20260505121407 38 360 8.0 11.0 0.00 0.00 0.00 63 1009.7
20260505121310 38 24 9.0 11.0 0.00 0.00 0.00 63 1009.7
20260505121215 38 355 7.0 10.0 0.00 0.00 0.00 64 1009.7
20260505121115 38 355 7.0 10.0 0.00 0.00 0.00 64 1009.6
20260505121016 38 5 8.0 10.0 0.00 0.00 0.00 64 1009.7
20260505120918 38 360 6.0 10.0 0.00 0.00 0.00 65 1009.6
20260505120822 38 350 5.0 10.0 0.00 0.00 0.00 65 1009.6
20260505120722 38 13 5.0 10.0 0.00 0.00 0.00 65 1009.7
20260505120624 38 334 5.0 10.0 0.00 0.00 0.00 65 1009.6
20260505120525 38 343 6.0 10.0 0.00 0.00 0.00 65 1009.5
20260505120407 38 328 6.0 11.0 0.00 0.00 0.00 65 1009.6
20260505120307 38 355 7.0 11.0 0.00 0.00 0.00 66 1009.5
20260505120213 38 355 6.0 11.0 0.00 0.00 0.00 66 1009.6
20260505120114 38 26 5.0 11.0 0.00 0.00 0.00 66 1009.6
20260505120016 38 355 5.0 11.0 0.00 0.00 0.00 66 1009.5
20260505115937 37 339 6.0 11.0 0.00 0.00 0.00 66 1009.5
20260505115838 37 309 6.0 11.0 0.00 0.00 0.00 66 1009.4
20260505115718 37 12 6.0 11.0 0.00 0.00 0.00 66 1009.5
20260505115620 37 20 6.0 11.0 0.00 0.00 0.00 67 1009.4
20260505115526 37 336 6.0 11.0 0.00 0.00 0.00 67 1009.3
20260505115407 37 349 5.0 10.0 0.00 0.00 0.00 67 1009.4
20260505115309 37 344 6.0 11.0 0.00 0.00 0.00 67 1009.4
20260505115230 37 355 7.0 12.0 0.00 0.00 0.00 67 1009.4
20260505115111 37 360 7.0 12.0 0.00 0.00 0.00 67 1009.4
20260505115011 37 350 6.0 12.0 0.00 0.00 0.00 68 1009.4
20260505114933 37 360 5.0 12.0 0.00 0.00 0.00 68 1009.2
20260505114817 37 30 4.0 12.0 0.00 0.00 0.00 68 1009.3
20260505114719 37 325 5.0 12.0 0.00 0.00 0.00 68 1009.3
20260505114620 37 5 8.0 12.0 0.00 0.00 0.00 68 1009.3
20260505114522 37 5 8.0 12.0 0.00 0.00 0.00 68 1009.3
20260505114424 37 28 8.0 12.0 0.00 0.00 0.00 68 1009.2
20260505114325 37 23 7.0 12.0 0.00 0.00 0.00 68 1009.2
20260505114210 37 348 7.0 10.0 0.00 0.00 0.00 68 1009.3
20260505114111 37 337 7.0 10.0 0.00 0.00 0.00 69 1009.2
20260505114011 37 11 7.0 12.0 0.00 0.00 0.00 69 1009.3
20260505113913 37 5 7.0 12.0 0.00 0.00 0.00 69 1009.2
20260505113815 37 348 7.0 12.0 0.00 0.00 0.00 69 1009.2
20260505113716 36 303 7.0 12.0 0.00 0.00 0.00 69 1009.2
20260505113618 36 355 6.0 12.0 0.00 0.00 0.00 69 1009.2
20260505113523 36 344 5.0 12.0 0.00 0.00 0.00 70 1009.1
20260505113443 36 360 7.0 13.0 0.00 0.00 0.00 70 1009.2
20260505113324 36 355 7.0 13.0 0.00 0.00 0.00 70 1009.1
20260505113224 36 346 6.0 13.0 0.00 0.00 0.00 70 1009.1
20260505113145 36 316 5.0 13.0 0.00 0.00 0.00 70 1009.2
20260505113026 36 5 7.0 13.0 0.00 0.00 0.00 70 1009.1
20260505112927 36 10 8.0 13.0 0.00 0.00 0.00 70 1009.1
20260505112832 36 339 9.0 13.0 0.00 0.00 0.00 71 1009.1
20260505112711 36 360 8.0 13.0 0.00 0.00 0.00 71 1009.1
20260505112633 36 360 7.0 13.0 0.00 0.00 0.00 71 1009.0
20260505112534 36 327 6.0 12.0 0.00 0.00 0.00 71 1009.0
20260505112407 36 346 8.0 12.0 0.00 0.00 0.00 72 1009.0
20260505112329 36 341 9.0 12.0 0.00 0.00 0.00 72 1008.9
20260505112209 36 346 6.0 12.0 0.00 0.00 0.00 72 1008.9
20260505112113 36 341 4.0 9.0 0.00 0.00 0.00 72 1008.9
20260505112019 36 331 6.0 9.0 0.00 0.00 0.00 72 1008.9
20260505111921 36 323 6.0 9.0 0.00 0.00 0.00 72 1008.9
20260505111841 36 346 4.0 9.0 0.00 0.00 0.00 72 1008.9
20260505111721 36 360 4.0 9.0 0.00 0.00 0.00 72 1008.8
20260505111622 36 5 5.0 9.0 0.00 0.00 0.00 72 1008.9
20260505111523 36 5 6.0 9.0 0.00 0.00 0.00 72 1008.8
20260505111423 36 360 6.0 9.0 0.00 0.00 0.00 72 1008.8
20260505111308 36 349 5.0 8.0 0.00 0.00 0.00 72 1008.8
20260505111229 36 360 5.0 8.0 0.00 0.00 0.00 73 1008.8
20260505111106 36 355 5.0 8.0 0.00 0.00 0.00 73 1008.8
20260505111010 36 341 4.0 10.0 0.00 0.00 0.00 73 1008.8
20260505110913 36 348 4.0 10.0 0.00 0.00 0.00 73 1008.8
20260505110817 36 347 4.0 10.0 0.00 0.00 0.00 73 1008.9
20260505110725 36 5 4.0 10.0 0.00 0.00 0.00 73 1008.7
20260505110650 36 330 4.0 10.0 0.00 0.00 0.00 73 1008.9
20260505110505 36 326 4.0 10.0 0.00 0.00 0.00 73 1008.8
20260505110430 36 5 4.0 10.0 0.00 0.00 0.00 73 1008.9
20260505110306 36 340 5.0 10.0 0.00 0.00 0.00 73 1008.9
20260505110231 36 344 5.0 10.0 0.00 0.00 0.00 72 1008.8
20260505110113 36 5 5.0 10.0 0.00 0.00 0.00 72 1008.8
20260505102204 37 5 4.0 9.0 0.00 0.00 0.00 71 1008.7
20260505102107 37 337 4.0 9.0 0.00 0.00 0.00 72 1008.6
20260505102015 37 30 5.0 9.0 0.00 0.00 0.00 71 1008.6
20260505101938 37 349 4.0 9.0 0.00 0.00 0.00 71 1008.5
20260505101823 37 350 4.0 9.0 0.00 0.00 0.00 71 1008.6
20260505101707 37 355 4.0 9.0 0.00 0.00 0.00 71 1008.6
20260505101610 37 360 4.0 9.0 0.00 0.00 0.00 71 1008.6
20260505101515 37 346 5.0 9.0 0.00 0.00 0.00 71 1008.6
20260505101420 37 29 5.0 9.0 0.00 0.00 0.00 71 1008.5
20260505101307 37 314 5.0 9.0 0.00 0.00 0.00 71 1008.5
20260505101212 37 347 5.0 9.0 0.00 0.00 0.00 71 1008.6
20260505101117 37 331 6.0 9.0 0.00 0.00 0.00 71 1008.5
20260505101041 37 331 6.0 9.0 0.00 0.00 0.00 71 1008.6
20260505100925 37 355 4.0 9.0 0.00 0.00 0.00 71 1008.6
20260505100808 37 316 4.0 8.0 0.00 0.00 0.00 71 1008.6
20260505100717 37 348 4.0 8.0 0.00 0.00 0.00 70 1008.6
20260505100621 37 339 4.0 8.0 0.00 0.00 0.00 70 1008.5
20260505100505 37 348 4.0 8.0 0.00 0.00 0.00 70 1008.6
20260505100428 37 5 4.0 8.0 0.00 0.00 0.00 70 1008.6
20260505100311 37 339 5.0 9.0 0.00 0.00 0.00 70 1008.6
20260505100236 37 355 5.0 9.0 0.00 0.00 0.00 70 1008.6
20260505100120 37 336 4.0 9.0 0.00 0.00 0.00 70 1008.6
20260505100027 37 16 4.0 9.0 0.00 0.00 0.00 70 1008.6
20260505095904 37 350 5.0 9.0 0.00 0.00 0.00 70 1008.6
20260505095809 37 343 4.0 9.0 0.00 0.00 0.00 70 1008.7
20260505095714 37 336 4.0 9.0 0.00 0.00 0.00 70 1008.6
20260505095617 37 317 5.0 9.0 0.00 0.00 0.00 70 1008.7
20260505095522 37 341 5.0 9.0 0.00 0.00 0.00 70 1008.6
20260505095430 38 355 4.0 8.0 0.00 0.00 0.00 70 1008.7
20260505095307 38 350 4.0 8.0 0.00 0.00 0.00 70 1008.6
20260505095210 38 360 4.0 9.0 0.00 0.00 0.00 70 1008.6
20260505095114 38 333 4.0 9.0 0.00 0.00 0.00 70 1008.6
20260505095018 38 311 4.0 9.0 0.00 0.00 0.00 70 1008.7
20260505094942 38 339 4.0 9.0 0.00 0.00 0.00 70 1008.6
20260505094810 38 339 3.0 9.0 0.00 0.00 0.00 70 1008.7
20260505094715 38 337 3.0 11.0 0.00 0.00 0.00 70 1008.6
20260505094639 38 309 4.0 11.0 0.00 0.00 0.00 69 1008.7
20260505094522 38 346 5.0 11.0 0.00 0.00 0.00 69 1008.6
20260505094407 38 355 5.0 11.0 0.00 0.00 0.00 70 1008.6
20260505094311 38 351 4.0 11.0 0.00 0.00 0.00 70 1008.6
20260505094214 38 349 4.0 11.0 0.00 0.00 0.00 70 1008.6
20260505094142 38 360 5.0 11.0 0.00 0.00 0.00 69 1008.6
20260505094025 38 342 7.0 11.0 0.00 0.00 0.00 69 1008.6
20260505093949 38 329 6.0 11.0 0.00 0.00 0.00 69 1008.6
20260505093805 38 340 5.0 11.0 0.00 0.00 0.00 69 1008.5
20260505093710 38 335 5.0 11.0 0.00 0.00 0.00 69 1008.5
20260505093634 38 327 5.0 11.0 0.00 0.00 0.00 69 1008.5
20260505093518 38 348 5.0 11.0 0.00 0.00 0.00 69 1008.5
20260505093406 38 339 8.0 11.0 0.00 0.00 0.00 69 1008.4
20260505093311 38 333 7.0 11.0 0.00 0.00 0.00 69 1008.5
20260505093215 38 326 5.0 11.0 0.00 0.00 0.00 69 1008.5
20260505093120 38 333 4.0 11.0 0.00 0.00 0.00 69 1008.4
20260505093005 38 350 4.0 11.0 0.00 0.00 0.00 69 1008.5
20260505092909 38 327 5.0 11.0 0.00 0.00 0.00 68 1008.4
20260505092816 38 350 5.0 11.0 0.00 0.00 0.00 68 1008.4
20260505092740 38 327 6.0 11.0 0.00 0.00 0.00 68 1008.4
20260505092624 38 355 6.0 10.0 0.00 0.00 0.00 68 1008.5
20260505092529 38 336 7.0 10.0 0.00 0.00 0.00 68 1008.4
20260505092413 38 321 5.0 10.0 0.00 0.00 0.00 69 1008.4
20260505092318 38 329 5.0 10.0 0.00 0.00 0.00 69 1008.4
20260505092243 38 346 5.0 10.0 0.00 0.00 0.00 69 1008.4
20260505092130 38 343 5.0 9.0 0.00 0.00 0.00 68 1008.4
20260505092007 38 333 6.0 9.0 0.00 0.00 0.00 68 1008.4
20260505091911 38 310 6.0 11.0 0.00 0.00 0.00 69 1008.4
20260505091815 38 342 5.0 11.0 0.00 0.00 0.00 68 1008.4
20260505091719 38 350 5.0 11.0 0.00 0.00 0.00 68 1008.3
20260505091643 38 348 3.0 13.0 0.00 0.00 0.00 68 1008.4
20260505091511 39 13 4.0 13.0 0.00 0.00 0.00 68 1008.3
20260505091416 39 319 4.0 13.0 0.00 0.00 0.00 68 1008.3
20260505091320 39 291 4.0 13.0 0.00 0.00 0.00 67 1008.3
20260505091224 39 339 6.0 13.0 0.00 0.00 0.00 67 1008.3
20260505091108 39 325 6.0 13.0 0.00 0.00 0.00 67 1008.3
20260505091013 39 342 5.0 13.0 0.00 0.00 0.00 67 1008.3
20260505090922 39 355 7.0 13.0 0.00 0.00 0.00 67 1008.2
20260505090826 39 355 9.0 13.0 0.00 0.00 0.00 67 1008.2
20260505090729 39 355 8.0 13.0 0.00 0.00 0.00 67 1008.1
20260505090605 39 355 8.0 14.0 0.00 0.00 0.00 67 1008.1
20260505090509 39 9 8.0 14.0 0.00 0.00 0.00 67 1008.2
20260505090414 39 350 6.0 14.0 0.00 0.00 0.00 67 1008.1
20260505090319 39 319 7.0 14.0 0.00 0.00 0.00 67 1008.2
20260505090227 39 341 6.0 14.0 0.00 0.00 0.00 67 1008.1
20260505090130 39 334 4.0 14.0 0.00 0.00 0.00 67 1008.2
20260505090007 39 22 5.0 14.0 0.00 0.00 0.00 67 1008.1
20260505085912 39 348 8.0 14.0 0.00 0.00 0.00 66 1008.1
20260505085816 39 355 8.0 14.0 0.00 0.00 0.00 66 1008.1
20260505085720 39 323 7.0 14.0 0.00 0.00 0.00 66 1008.1
20260505085628 39 360 9.0 16.0 0.00 0.00 0.00 66 1008.2
20260505085506 39 19 8.0 16.0 0.00 0.00 0.00 66 1008.2
20260505085430 39 360 8.0 16.0 0.00 0.00 0.00 66 1008.2
20260505085308 39 338 10.0 16.0 0.00 0.00 0.00 66 1008.1
20260505085212 39 345 9.0 16.0 0.00 0.00 0.00 66 1008.2
20260505085137 39 345 6.0 16.0 0.00 0.00 0.00 67 1008.2
20260505085020 39 327 8.0 16.0 0.00 0.00 0.00 67 1008.2
20260505084928 39 345 10.0 16.0 0.00 0.00 0.00 66 1008.2